START_TIME,STEP,MOV.,EG07,t_acc.,EG08,t_acc.,EG09,t_acc.,EB05,t_acc.,EBP05,t_acc.
1981-08-29 09:00:23.470 ,4,0,0.,1.2,0.,1.2,0.,1.2,,0.0,,0.0
1981-08-29 09:00:24.670 ,4,0,0.,1.2,0.,1.2,0.,1.2,,0.0,,0.0
1981-08-29 09:00:25.870 ,4,0,0.,1.2,0.,1.2,0.,1.2,,0.0,,0.0
1981-08-29 09:00:27.070 ,4,0,1.,1.2,1.,1.2,1.,1.2,,0.0,,0.0
1981-08-29 09:00:28.270 ,4,0,1.,1.2,0.,1.2,0.,1.2,,0.0,,0.0
1981-08-29 09:00:29.470 ,4,0,0.,1.2,0.,1.2,0.,1.2,,0.0,,0.0
1981-08-29 09:00:30.670 ,4,0,0.,1.2,0.,1.2,0.,1.2,,0.0,,0.0
1981-08-29 09:00:31.870 ,4,0,0.,1.2,0.,1.2,0.,1.2,,0.0,,0.0
1981-08-29 09:00:33.070 ,4,0,1.,1.2,1.,1.2,0.,1.2,,0.0,,0.0
1981-08-29 09:00:34.270 ,4,0,1.,1.2,1.,1.2,0.,1.2,,0.0,,0.0
1981-08-29 09:00:35.470 ,4,0,0.,1.2,0.,1.2,0.,1.2,,0.0,,0.0
1981-08-29 09:00:36.670 ,4,0,2.,1.2,1.,1.2,0.,1.2,,0.0,,0.0
1981-08-29 09:00:37.870 ,4,0,0.,1.2,0.,1.2,0.,1.2,,0.0,,0.0
1981-08-29 09:00:39.070 ,4,0,0.,1.2,0.,1.2,0.,1.2,,0.0,,0.0
1981-08-29 09:00:40.270 ,4,0,2.,1.2,1.,1.2,1.,1.2,,0.0,,0.0
1981-08-29 09:00:41.470 ,4,0,0.,1.2,0.,1.2,0.,1.2,,0.0,,0.0
1981-08-29 09:00:42.670 ,4,0,0.,1.2,0.,1.2,0.,1.2,,0.0,,0.0
1981-08-29 09:00:43.870 ,4,0,0.,1.2,0.,1.2,0.,1.2,,0.0,,0.0
1981-08-29 09:00:45.070 ,4,0,1.,1.2,0.,1.2,0.,1.2,,0.0,,0.0
1981-08-29 09:00:46.270 ,4,0,0.,1.2,0.,1.2,0.,1.2,,0.0,,0.0
1981-08-29 09:00:47.470 ,3,0,0.,1.2,0.,1.2,0.,1.2,,0.0,,0.0
1981-08-29 09:00:48.670 ,3,0,0.,1.2,0.,1.2,0.,1.2,,0.0,,0.0
1981-08-29 09:00:49.870 ,3,0,0.,1.2,0.,1.2,0.,1.2,,0.0,,0.0
1981-08-29 09:00:51.070 ,3,0,0.,1.2,0.,1.2,0.,1.2,,0.0,,0.0
1981-08-29 09:00:52.270 ,3,0,0.,1.2,0.,1.2,0.,1.2,,0.0,,0.0
1981-08-29 09:00:53.470 ,3,0,0.,1.2,0.,1.2,0.,1.2,,0.0,,0.0
1981-08-29 09:00:54.670 ,3,0,0.,1.2,0.,1.2,0.,1.2,,0.0,,0.0
1981-08-29 09:00:55.870 ,3,0,0.,1.2,0.,1.2,0.,1.2,,0.0,,0.0
1981-08-29 09:00:57.070 ,3,0,1.,1.2,0.,1.2,0.,1.2,,0.0,,0.0
1981-08-29 09:00:58.270 ,3,0,0.,1.2,0.,1.2,0.,1.2,,0.0,,0.0
1981-08-29 09:00:59.470 ,3,0,0.,1.2,0.,1.2,0.,1.2,,0.0,,0.0
1981-08-29 09:01:00.670 ,3,0,0.,1.2,0.,1.2,0.,1.2,,0.0,,0.0
1981-08-29 09:01:01.870 ,3,0,0.,1.2,0.,1.2,0.,1.2,,0.0,,0.0
1981-08-29 09:01:03.070 ,3,0,0.,1.2,0.,1.2,0.,1.2,,0.0,,0.0
1981-08-29 09:01:04.270 ,3,0,1.,1.2,0.,1.2,0.,1.2,,0.0,,0.0
1981-08-29 09:01:05.470 ,3,0,0.,1.2,0.,1.2,0.,1.2,,0.0,,0.0
1981-08-29 09:01:06.670 ,3,0,0.,1.2,0.,1.2,0.,1.2,,0.0,,0.0
1981-08-29 09:01:07.870 ,3,0,0.,1.2,0.,1.2,0.,1.2,,0.0,,0.0
1981-08-29 09:01:09.070 ,3,0,0.,1.2,0.,1.2,0.,1.2,,0.0,,0.0
1981-08-29 09:01:10.270 ,3,0,2.,1.2,2.,1.2,0.,1.2,,0.0,,0.0
1981-08-29 09:01:11.470 ,2,0,0.,1.2,0.,1.2,0.,1.2,,0.0,,0.0
1981-08-29 09:01:12.670 ,2,0,0.,1.2,0.,1.2,0.,1.2,,0.0,,0.0
1981-08-29 09:01:13.870 ,2,0,0.,1.2,0.,1.2,0.,1.2,,0.0,,0.0
1981-08-29 09:01:15.070 ,2,0,0.,1.2,0.,1.2,0.,1.2,,0.0,,0.0
1981-08-29 09:01:16.270 ,2,0,0.,1.2,0.,1.2,0.,1.2,,0.0,,0.0
1981-08-29 09:01:17.470 ,2,0,0.,1.2,0.,1.2,0.,1.2,,0.0,,0.0
1981-08-29 09:01:18.670 ,2,0,0.,1.2,0.,1.2,0.,1.2,,0.0,,0.0
1981-08-29 09:01:19.870 ,2,0,0.,1.2,0.,1.2,0.,1.2,,0.0,,0.0
1981-08-29 09:01:21.070 ,2,0,0.,1.2,0.,1.2,0.,1.2,,0.0,,0.0
1981-08-29 09:01:22.270 ,2,0,0.,1.2,0.,1.2,0.,1.2,,0.0,,0.0
1981-08-29 09:01:23.470 ,2,0,1.,1.2,0.,1.2,0.,1.2,,0.0,,0.0
1981-08-29 09:01:24.670 ,2,0,0.,1.2,0.,1.2,0.,1.2,,0.0,,0.0
1981-08-29 09:01:25.870 ,2,0,0.,1.2,0.,1.2,0.,1.2,,0.0,,0.0
1981-08-29 09:01:27.070 ,2,0,0.,1.2,0.,1.2,0.,1.2,,0.0,,0.0
1981-08-29 09:01:28.270 ,2,0,1.,1.2,1.,1.2,1.,1.2,,0.0,,0.0
1981-08-29 09:01:29.470 ,2,0,0.,1.2,0.,1.2,0.,1.2,,0.0,,0.0
1981-08-29 09:01:30.670 ,2,0,0.,1.2,0.,1.2,0.,1.2,,0.0,,0.0
1981-08-29 09:01:31.870 ,2,0,0.,1.2,0.,1.2,0.,1.2,,0.0,,0.0
1981-08-29 09:01:33.070 ,2,0,0.,1.2,0.,1.2,0.,1.2,,0.0,,0.0
1981-08-29 09:01:34.270 ,2,0,1.,1.2,0.,1.2,0.,1.2,,0.0,,0.0
1981-08-29 09:01:35.470 ,1,0,1.,1.2,1.,1.2,1.,1.2,,0.0,,0.0
1981-08-29 09:01:36.670 ,1,0,0.,1.2,0.,1.2,0.,1.2,,0.0,,0.0
1981-08-29 09:01:37.870 ,1,0,0.,1.2,0.,1.2,0.,1.2,,0.0,,0.0
1981-08-29 09:01:39.070 ,1,0,0.,1.2,0.,1.2,0.,1.2,,0.0,,0.0
1981-08-29 09:01:40.270 ,1,0,0.,1.2,0.,1.2,0.,1.2,,0.0,,0.0
1981-08-29 09:01:41.470 ,1,0,1.,1.2,1.,1.2,0.,1.2,,0.0,,0.0
1981-08-29 09:01:42.670 ,1,0,0.,1.2,0.,1.2,0.,1.2,,0.0,,0.0
1981-08-29 09:01:43.870 ,1,0,0.,1.2,0.,1.2,0.,1.2,,0.0,,0.0
1981-08-29 09:01:45.070 ,1,0,0.,1.2,0.,1.2,0.,1.2,,0.0,,0.0
1981-08-29 09:01:46.270 ,1,0,0.,1.2,0.,1.2,0.,1.2,,0.0,,0.0
1981-08-29 09:01:47.470 ,1,0,0.,1.2,0.,1.2,0.,1.2,,0.0,,0.0
1981-08-29 09:01:48.670 ,1,0,1.,1.2,0.,1.2,0.,1.2,,0.0,,0.0
1981-08-29 09:01:49.870 ,1,0,0.,1.2,0.,1.2,0.,1.2,,0.0,,0.0
1981-08-29 09:01:51.070 ,1,0,0.,1.2,0.,1.2,0.,1.2,,0.0,,0.0
1981-08-29 09:01:52.270 ,1,0,0.,1.2,0.,1.2,0.,1.2,,0.0,,0.0
1981-08-29 09:01:53.470 ,1,0,0.,1.2,0.,1.2,0.,1.2,,0.0,,0.0
1981-08-29 09:01:54.670 ,1,0,0.,1.2,0.,1.2,0.,1.2,,0.0,,0.0
1981-08-29 09:01:55.870 ,1,0,0.,1.2,0.,1.2,0.,1.2,,0.0,,0.0
1981-08-29 09:01:57.070 ,1,0,1.,1.2,0.,1.2,0.,1.2,,0.0,,0.0
1981-08-29 09:01:58.270 ,1,0,0.,1.2,0.,1.2,0.,1.2,,0.0,,0.0
1981-08-29 09:01:59.470 ,0,0,0.,1.2,0.,1.2,0.,1.2,,0.0,,0.0
1981-08-29 09:02:00.670 ,0,0,0.,1.2,0.,1.2,0.,1.2,,0.0,,0.0
1981-08-29 09:02:01.870 ,0,0,0.,1.2,0.,1.2,0.,1.2,,0.0,,0.0
1981-08-29 09:02:03.070 ,0,0,0.,1.2,0.,1.2,0.,1.2,,0.0,,0.0
1981-08-29 09:02:04.270 ,0,0,1.,1.2,1.,1.2,1.,1.2,,0.0,,0.0
1981-08-29 09:02:05.470 ,0,0,0.,1.2,0.,1.2,0.,1.2,,0.0,,0.0
1981-08-29 09:02:06.670 ,0,0,0.,1.2,0.,1.2,0.,1.2,,0.0,,0.0
1981-08-29 09:02:07.870 ,0,0,0.,1.2,0.,1.2,0.,1.2,,0.0,,0.0
1981-08-29 09:02:09.070 ,0,0,1.,1.2,0.,1.2,0.,1.2,,0.0,,0.0
1981-08-29 09:02:10.270 ,0,0,0.,1.2,0.,1.2,0.,1.2,,0.0,,0.0
1981-08-29 09:02:11.470 ,0,0,0.,1.2,0.,1.2,0.,1.2,,0.0,,0.0
1981-08-29 09:02:12.670 ,0,0,0.,1.2,0.,1.2,0.,1.2,,0.0,,0.0
1981-08-29 09:02:13.870 ,0,0,0.,1.2,0.,1.2,0.,1.2,,0.0,,0.0
1981-08-29 09:02:15.070 ,0,0,1.,1.2,0.,1.2,0.,1.2,,0.0,,0.0
1981-08-29 09:02:16.270 ,0,0,0.,1.2,0.,1.2,0.,1.2,,0.0,,0.0
1981-08-29 09:02:17.470 ,0,0,1.,1.2,1.,1.2,0.,1.2,,0.0,,0.0
1981-08-29 09:02:18.670 ,0,0,0.,1.2,0.,1.2,0.,1.2,,0.0,,0.0
1981-08-29 09:02:19.870 ,0,0,0.,1.2,0.,1.2,0.,1.2,,0.0,,0.0
1981-08-29 09:02:21.070 ,0,0,0.,1.2,0.,1.2,0.,1.2,,0.0,,0.0
1981-08-29 09:02:22.270 ,0,0,0.,1.2,0.,1.2,0.,1.2,,0.0,,0.0
1981-08-29 09:02:23.470 ,0,0,0.,1.2,0.,1.2,0.,1.2,,0.0,,0.0
1981-08-29 09:02:24.670 ,0,0,0.,1.2,0.,1.2,0.,1.2,,0.0,,0.0
1981-08-29 09:02:25.870 ,0,0,0.,1.2,0.,1.2,0.,1.2,,0.0,,0.0
1981-08-29 09:02:27.070 ,0,0,0.,1.2,0.,1.2,0.,1.2,,0.0,,0.0
1981-08-29 09:02:28.270 ,0,0,0.,1.2,0.,1.2,0.,1.2,,0.0,,0.0
1981-08-29 09:02:29.470 ,0,0,0.,1.2,0.,1.2,0.,1.2,,0.0,,0.0
1981-08-29 09:02:30.670 ,0,0,0.,1.2,0.,1.2,0.,1.2,,0.0,,0.0
1981-08-29 09:02:31.870 ,0,0,0.,1.2,0.,1.2,0.,1.2,,0.0,,0.0
1981-08-29 09:02:33.070 ,0,0,0.,1.2,0.,1.2,0.,1.2,,0.0,,0.0
1981-08-29 09:02:34.270 ,0,0,0.,1.2,0.,1.2,0.,1.2,,0.0,,0.0
1981-08-29 09:02:35.470 ,0,0,1.,1.2,0.,1.2,0.,1.2,,0.0,,0.0
1981-08-29 09:02:36.670 ,0,0,0.,1.2,0.,1.2,0.,1.2,,0.0,,0.0
1981-08-29 09:02:37.870 ,0,0,0.,1.2,0.,1.2,0.,1.2,,0.0,,0.0
1981-08-29 09:02:39.070 ,0,0,1.,1.2,0.,1.2,0.,1.2,,0.0,,0.0
1981-08-29 09:02:40.270 ,0,0,0.,1.2,0.,1.2,0.,1.2,,0.0,,0.0
1981-08-29 09:02:41.470 ,0,0,0.,1.2,0.,1.2,0.,1.2,,0.0,,0.0
1981-08-29 09:02:42.670 ,0,0,0.,1.2,0.,1.2,0.,1.2,,0.0,,0.0
1981-08-29 09:02:43.870 ,0,0,0.,1.2,0.,1.2,0.,1.2,,0.0,,0.0
1981-08-29 09:02:45.070 ,0,0,0.,1.2,0.,1.2,0.,1.2,,0.0,,0.0
1981-08-29 09:02:46.270 ,0,0,0.,1.2,0.,1.2,0.,1.2,,0.0,,0.0
1981-08-29 09:02:47.470 ,1,0,0.,1.2,0.,1.2,0.,1.2,,0.0,,0.0
1981-08-29 09:02:48.670 ,1,0,0.,1.2,0.,1.2,0.,1.2,,0.0,,0.0
1981-08-29 09:02:49.870 ,1,0,2.,1.2,0.,1.2,0.,1.2,,0.0,,0.0
1981-08-29 09:02:51.070 ,1,0,1.,1.2,0.,1.2,0.,1.2,,0.0,,0.0
1981-08-29 09:02:52.270 ,1,0,0.,1.2,0.,1.2,0.,1.2,,0.0,,0.0
1981-08-29 09:02:53.470 ,1,0,0.,1.2,0.,1.2,0.,1.2,,0.0,,0.0
1981-08-29 09:02:54.670 ,1,0,1.,1.2,0.,1.2,0.,1.2,,0.0,,0.0
1981-08-29 09:02:55.870 ,1,0,0.,1.2,0.,1.2,0.,1.2,,0.0,,0.0
1981-08-29 09:02:57.070 ,1,0,0.,1.2,0.,1.2,0.,1.2,,0.0,,0.0
1981-08-29 09:02:58.270 ,1,0,0.,1.2,0.,1.2,0.,1.2,,0.0,,0.0
1981-08-29 09:02:59.470 ,1,0,0.,1.2,0.,1.2,0.,1.2,,0.0,,0.0
1981-08-29 09:03:00.670 ,1,0,1.,1.2,0.,1.2,0.,1.2,,0.0,,0.0
1981-08-29 09:03:01.870 ,1,0,0.,1.2,0.,1.2,0.,1.2,,0.0,,0.0
1981-08-29 09:03:03.070 ,1,0,0.,1.2,0.,1.2,0.,1.2,,0.0,,0.0
1981-08-29 09:03:04.270 ,1,0,0.,1.2,0.,1.2,0.,1.2,,0.0,,0.0
1981-08-29 09:03:05.470 ,1,0,0.,1.2,0.,1.2,0.,1.2,,0.0,,0.0
1981-08-29 09:03:06.670 ,1,0,0.,1.2,0.,1.2,0.,1.2,,0.0,,0.0
1981-08-29 09:03:07.870 ,1,0,0.,1.2,0.,1.2,0.,1.2,,0.0,,0.0
1981-08-29 09:03:09.070 ,1,0,0.,1.2,0.,1.2,0.,1.2,,0.0,,0.0
1981-08-29 09:03:10.270 ,1,0,0.,1.2,0.,1.2,0.,1.2,,0.0,,0.0
1981-08-29 09:03:11.470 ,2,0,0.,1.2,0.,1.2,0.,1.2,,0.0,,0.0
1981-08-29 09:03:12.670 ,2,0,0.,1.2,0.,1.2,0.,1.2,,0.0,,0.0
1981-08-29 09:03:13.870 ,2,0,1.,1.2,0.,1.2,0.,1.2,,0.0,,0.0
1981-08-29 09:03:15.070 ,2,0,1.,1.2,1.,1.2,0.,1.2,,0.0,,0.0
1981-08-29 09:03:16.270 ,2,0,0.,1.2,0.,1.2,0.,1.2,,0.0,,0.0
1981-08-29 09:03:17.470 ,2,0,1.,1.2,0.,1.2,0.,1.2,,0.0,,0.0
1981-08-29 09:03:18.670 ,2,0,1.,1.2,1.,1.2,1.,1.2,,0.0,,0.0
1981-08-29 09:03:19.870 ,2,0,0.,1.2,0.,1.2,0.,1.2,,0.0,,0.0
1981-08-29 09:03:21.070 ,2,0,0.,1.2,0.,1.2,0.,1.2,,0.0,,0.0
1981-08-29 09:03:22.270 ,2,0,0.,1.2,0.,1.2,0.,1.2,,0.0,,0.0
1981-08-29 09:03:23.470 ,2,0,0.,1.2,0.,1.2,0.,1.2,,0.0,,0.0
1981-08-29 09:03:24.670 ,2,0,0.,1.2,0.,1.2,0.,1.2,,0.0,,0.0
1981-08-29 09:03:25.870 ,2,0,0.,1.2,0.,1.2,0.,1.2,,0.0,,0.0
1981-08-29 09:03:27.070 ,2,0,1.,1.2,0.,1.2,0.,1.2,,0.0,,0.0
1981-08-29 09:03:28.270 ,2,0,1.,1.2,1.,1.2,1.,1.2,,0.0,,0.0
1981-08-29 09:03:29.470 ,2,0,0.,1.2,0.,1.2,0.,1.2,,0.0,,0.0
1981-08-29 09:03:30.670 ,2,0,0.,1.2,0.,1.2,0.,1.2,,0.0,,0.0
1981-08-29 09:03:31.870 ,2,0,0.,1.2,0.,1.2,0.,1.2,,0.0,,0.0
1981-08-29 09:03:33.070 ,2,0,0.,1.2,0.,1.2,0.,1.2,,0.0,,0.0
1981-08-29 09:03:34.270 ,2,0,0.,1.2,0.,1.2,0.,1.2,,0.0,,0.0
1981-08-29 09:03:35.470 ,3,0,1.,1.2,0.,1.2,0.,1.2,,0.0,,0.0
1981-08-29 09:03:36.670 ,3,0,0.,1.2,0.,1.2,0.,1.2,,0.0,,0.0
1981-08-29 09:03:37.870 ,3,0,0.,1.2,0.,1.2,0.,1.2,,0.0,,0.0
1981-08-29 09:03:39.070 ,3,0,0.,1.2,0.,1.2,0.,1.2,,0.0,,0.0
1981-08-29 09:03:40.270 ,3,0,0.,1.2,0.,1.2,0.,1.2,,0.0,,0.0
1981-08-29 09:03:41.470 ,3,0,1.,1.2,1.,1.2,0.,1.2,,0.0,,0.0
1981-08-29 09:03:42.670 ,3,0,0.,1.2,0.,1.2,0.,1.2,,0.0,,0.0
1981-08-29 09:03:43.870 ,3,0,0.,1.2,0.,1.2,0.,1.2,,0.0,,0.0
1981-08-29 09:03:45.070 ,3,0,1.,1.2,1.,1.2,1.,1.2,,0.0,,0.0
1981-08-29 09:03:46.270 ,3,0,1.,1.2,1.,1.2,0.,1.2,,0.0,,0.0
1981-08-29 09:03:47.470 ,3,0,0.,1.2,0.,1.2,0.,1.2,,0.0,,0.0
1981-08-29 09:03:48.670 ,3,0,0.,1.2,0.,1.2,0.,1.2,,0.0,,0.0
1981-08-29 09:03:49.870 ,3,0,0.,1.2,0.,1.2,0.,1.2,,0.0,,0.0
1981-08-29 09:03:51.070 ,3,0,0.,1.2,0.,1.2,0.,1.2,,0.0,,0.0
1981-08-29 09:03:52.270 ,3,0,0.,1.2,0.,1.2,0.,1.2,,0.0,,0.0
1981-08-29 09:03:53.470 ,3,0,0.,1.2,0.,1.2,0.,1.2,,0.0,,0.0
1981-08-29 09:03:54.670 ,3,0,0.,1.2,0.,1.2,0.,1.2,,0.0,,0.0
1981-08-29 09:03:55.870 ,3,0,0.,1.2,0.,1.2,0.,1.2,,0.0,,0.0
1981-08-29 09:03:57.070 ,3,0,1.,1.2,1.,1.2,1.,1.2,,0.0,,0.0
1981-08-29 09:03:58.270 ,3,0,1.,1.2,0.,1.2,0.,1.2,,0.0,,0.0
1981-08-29 09:03:59.470 ,4,0,0.,1.2,0.,1.2,0.,1.2,,0.0,,0.0
1981-08-29 09:04:00.670 ,4,0,0.,1.2,0.,1.2,0.,1.2,,0.0,,0.0
1981-08-29 09:04:01.870 ,4,0,0.,1.2,0.,1.2,0.,1.2,,0.0,,0.0
1981-08-29 09:04:03.070 ,4,0,0.,1.2,0.,1.2,0.,1.2,,0.0,,0.0
1981-08-29 09:04:04.270 ,4,0,0.,1.2,0.,1.2,0.,1.2,,0.0,,0.0
1981-08-29 09:04:05.470 ,4,0,0.,1.2,0.,1.2,0.,1.2,,0.0,,0.0
1981-08-29 09:04:06.670 ,4,0,0.,1.2,0.,1.2,0.,1.2,,0.0,,0.0
1981-08-29 09:04:07.870 ,4,0,0.,1.2,0.,1.2,0.,1.2,,0.0,,0.0
1981-08-29 09:04:09.070 ,4,0,0.,1.2,0.,1.2,0.,1.2,,0.0,,0.0
1981-08-29 09:04:10.270 ,4,0,1.,1.2,1.,1.2,0.,1.2,,0.0,,0.0
1981-08-29 09:04:11.470 ,4,0,0.,1.2,0.,1.2,0.,1.2,,0.0,,0.0
1981-08-29 09:04:12.670 ,4,0,0.,1.2,0.,1.2,0.,1.2,,0.0,,0.0
1981-08-29 09:04:13.870 ,4,0,0.,1.2,0.,1.2,0.,1.2,,0.0,,0.0
1981-08-29 09:04:15.070 ,4,0,0.,1.2,0.,1.2,0.,1.2,,0.0,,0.0
1981-08-29 09:04:16.270 ,4,0,0.,1.2,0.,1.2,0.,1.2,,0.0,,0.0
1981-08-29 09:04:17.470 ,4,0,0.,1.2,0.,1.2,0.,1.2,,0.0,,0.0
1981-08-29 09:04:18.670 ,4,0,0.,1.2,0.,1.2,0.,1.2,,0.0,,0.0
1981-08-29 09:04:19.870 ,4,0,0.,1.2,0.,1.2,0.,1.2,,0.0,,0.0
1981-08-29 09:04:21.070 ,4,0,0.,1.2,0.,1.2,0.,1.2,,0.0,,0.0
1981-08-29 09:04:22.270 ,4,0,0.,1.2,0.,1.2,0.,1.2,,0.0,,0.0
1981-08-29 09:04:23.470 ,5,0,0.,1.2,0.,1.2,0.,1.2,,0.0,,0.0
1981-08-29 09:04:24.670 ,5,0,0.,1.2,0.,1.2,0.,1.2,,0.0,,0.0
1981-08-29 09:04:25.870 ,5,0,0.,1.2,0.,1.2,0.,1.2,,0.0,,0.0
1981-08-29 09:04:27.070 ,5,0,0.,1.2,0.,1.2,0.,1.2,,0.0,,0.0
1981-08-29 09:04:28.270 ,5,0,0.,1.2,0.,1.2,0.,1.2,,0.0,,0.0
1981-08-29 09:04:29.470 ,5,0,0.,1.2,0.,1.2,0.,1.2,,0.0,,0.0
1981-08-29 09:04:30.670 ,5,0,2.,1.2,1.,1.2,0.,1.2,,0.0,,0.0
1981-08-29 09:04:31.870 ,5,0,0.,1.2,0.,1.2,0.,1.2,,0.0,,0.0
1981-08-29 09:04:33.070 ,5,0,3.,1.2,1.,1.2,0.,1.2,,0.0,,0.0
1981-08-29 09:04:34.270 ,5,0,0.,1.2,0.,1.2,0.,1.2,,0.0,,0.0
1981-08-29 09:04:35.470 ,5,0,2.,1.2,2.,1.2,1.,1.2,,0.0,,0.0
1981-08-29 09:04:36.670 ,5,0,0.,1.2,0.,1.2,0.,1.2,,0.0,,0.0
1981-08-29 09:04:37.870 ,5,0,0.,1.2,0.,1.2,0.,1.2,,0.0,,0.0
1981-08-29 09:04:39.070 ,5,0,0.,1.2,0.,1.2,0.,1.2,,0.0,,0.0
1981-08-29 09:04:40.270 ,5,0,0.,1.2,0.,1.2,0.,1.2,,0.0,,0.0
1981-08-29 09:04:41.470 ,5,0,0.,1.2,0.,1.2,0.,1.2,,0.0,,0.0
1981-08-29 09:04:42.670 ,5,0,0.,1.2,0.,1.2,0.,1.2,,0.0,,0.0
1981-08-29 09:04:43.870 ,5,0,0.,1.2,0.,1.2,0.,1.2,,0.0,,0.0
1981-08-29 09:04:45.070 ,5,0,1.,1.2,0.,1.2,0.,1.2,,0.0,,0.0
1981-08-29 09:04:46.270 ,5,0,1.,1.2,0.,1.2,0.,1.2,,0.0,,0.0
1981-08-29 09:04:47.470 ,6,0,0.,1.2,0.,1.2,0.,1.2,,0.0,,0.0
1981-08-29 09:04:48.670 ,6,0,0.,1.2,0.,1.2,0.,1.2,,0.0,,0.0
1981-08-29 09:04:49.870 ,6,0,0.,1.2,0.,1.2,0.,1.2,,0.0,,0.0
1981-08-29 09:04:51.070 ,6,0,0.,1.2,0.,1.2,0.,1.2,,0.0,,0.0
1981-08-29 09:04:52.270 ,6,0,0.,1.2,0.,1.2,0.,1.2,,0.0,,0.0
1981-08-29 09:04:53.470 ,6,0,0.,1.2,0.,1.2,0.,1.2,,0.0,,0.0
1981-08-29 09:04:54.670 ,6,0,0.,1.2,0.,1.2,0.,1.2,,0.0,,0.0
1981-08-29 09:04:55.870 ,6,0,0.,1.2,0.,1.2,0.,1.2,,0.0,,0.0
1981-08-29 09:04:57.070 ,6,0,0.,1.2,0.,1.2,0.,1.2,,0.0,,0.0
1981-08-29 09:04:58.270 ,6,0,0.,1.2,0.,1.2,0.,1.2,,0.0,,0.0
1981-08-29 09:04:59.470 ,6,0,0.,1.2,0.,1.2,0.,1.2,,0.0,,0.0
1981-08-29 09:05:00.670 ,6,0,0.,1.2,0.,1.2,0.,1.2,,0.0,,0.0
1981-08-29 09:05:01.870 ,6,0,1.,1.2,1.,1.2,0.,1.2,,0.0,,0.0
1981-08-29 09:05:03.070 ,6,0,0.,1.2,0.,1.2,0.,1.2,,0.0,,0.0
1981-08-29 09:05:04.270 ,6,0,0.,1.2,0.,1.2,0.,1.2,,0.0,,0.0
1981-08-29 09:05:05.470 ,6,0,0.,1.2,0.,1.2,0.,1.2,,0.0,,0.0
1981-08-29 09:05:06.670 ,6,0,1.,1.2,0.,1.2,0.,1.2,,0.0,,0.0
1981-08-29 09:05:07.870 ,6,0,0.,1.2,0.,1.2,0.,1.2,,0.0,,0.0
1981-08-29 09:05:09.070 ,6,0,0.,1.2,0.,1.2,0.,1.2,,0.0,,0.0
1981-08-29 09:05:10.270 ,6,0,0.,1.2,0.,1.2,0.,1.2,,0.0,,0.0
1981-08-29 09:05:11.470 ,7,0,0.,1.2,0.,1.2,0.,1.2,,0.0,,0.0
1981-08-29 09:05:12.670 ,7,0,0.,1.2,0.,1.2,0.,1.2,,0.0,,0.0
1981-08-29 09:05:13.870 ,7,0,0.,1.2,0.,1.2,0.,1.2,,0.0,,0.0
1981-08-29 09:05:15.070 ,7,0,1.,1.2,1.,1.2,0.,1.2,,0.0,,0.0
1981-08-29 09:05:16.270 ,7,0,0.,1.2,0.,1.2,0.,1.2,,0.0,,0.0
1981-08-29 09:05:17.470 ,7,0,0.,1.2,0.,1.2,0.,1.2,,0.0,,0.0
1981-08-29 09:05:18.670 ,7,0,1.,1.2,1.,1.2,0.,1.2,,0.0,,0.0
1981-08-29 09:05:19.870 ,7,0,0.,1.2,0.,1.2,0.,1.2,,0.0,,0.0
1981-08-29 09:05:21.070 ,7,0,0.,1.2,0.,1.2,0.,1.2,,0.0,,0.0
1981-08-29 09:05:22.270 ,7,0,0.,1.2,0.,1.2,0.,1.2,,0.0,,0.0
1981-08-29 09:05:23.470 ,7,0,0.,1.2,0.,1.2,0.,1.2,,0.0,,0.0
1981-08-29 09:05:24.670 ,7,0,0.,1.2,0.,1.2,0.,1.2,,0.0,,0.0
1981-08-29 09:05:25.870 ,7,0,0.,1.2,0.,1.2,0.,1.2,,0.0,,0.0
1981-08-29 09:05:27.070 ,7,0,0.,1.2,0.,1.2,0.,1.2,,0.0,,0.0
1981-08-29 09:05:28.270 ,7,0,0.,1.2,0.,1.2,0.,1.2,,0.0,,0.0
1981-08-29 09:05:29.470 ,7,0,0.,1.2,0.,1.2,0.,1.2,,0.0,,0.0
1981-08-29 09:05:30.670 ,7,0,0.,1.2,0.,1.2,0.,1.2,,0.0,,0.0
1981-08-29 09:05:31.870 ,7,0,0.,1.2,0.,1.2,0.,1.2,,0.0,,0.0
1981-08-29 09:05:33.070 ,7,0,0.,1.2,0.,1.2,0.,1.2,,0.0,,0.0
1981-08-29 09:05:34.270 ,7,0,0.,1.2,0.,1.2,0.,1.2,,0.0,,0.0
1981-08-29 09:05:35.470 ,7,0,1.,1.2,0.,1.2,0.,1.2,,0.0,,0.0
1981-08-29 09:05:36.670 ,7,0,0.,1.2,0.,1.2,0.,1.2,,0.0,,0.0
1981-08-29 09:05:37.870 ,7,0,0.,1.2,0.,1.2,0.,1.2,,0.0,,0.0
1981-08-29 09:05:39.070 ,7,0,1.,1.2,0.,1.2,0.,1.2,,0.0,,0.0
1981-08-29 09:05:40.270 ,7,0,0.,1.2,0.,1.2,0.,1.2,,0.0,,0.0
1981-08-29 09:05:41.470 ,7,0,0.,1.2,0.,1.2,0.,1.2,,0.0,,0.0
1981-08-29 09:05:42.670 ,7,0,0.,1.2,0.,1.2,0.,1.2,,0.0,,0.0
1981-08-29 09:05:43.870 ,7,0,1.,1.2,1.,1.2,0.,1.2,,0.0,,0.0
1981-08-29 09:05:45.070 ,7,0,0.,1.2,0.,1.2,0.,1.2,,0.0,,0.0
1981-08-29 09:05:46.270 ,7,0,0.,1.2,0.,1.2,0.,1.2,,0.0,,0.0
1981-08-29 09:05:47.470 ,7,0,2.,1.2,1.,1.2,0.,1.2,,0.0,,0.0
1981-08-29 09:05:48.670 ,7,0,0.,1.2,0.,1.2,0.,1.2,,0.0,,0.0
1981-08-29 09:05:49.870 ,7,0,1.,1.2,0.,1.2,0.,1.2,,0.0,,0.0
1981-08-29 09:05:51.070 ,7,0,0.,1.2,0.,1.2,0.,1.2,,0.0,,0.0
1981-08-29 09:05:52.270 ,7,0,0.,1.2,0.,1.2,0.,1.2,,0.0,,0.0
1981-08-29 09:05:53.470 ,7,0,0.,1.2,0.,1.2,0.,1.2,,0.0,,0.0
1981-08-29 09:05:54.670 ,7,0,0.,1.2,0.,1.2,0.,1.2,,0.0,,0.0
1981-08-29 09:05:55.870 ,7,0,0.,1.2,0.,1.2,0.,1.2,,0.0,,0.0
1981-08-29 09:05:57.070 ,7,0,0.,1.2,0.,1.2,0.,1.2,,0.0,,0.0
1981-08-29 09:05:58.270 ,7,0,0.,1.2,0.,1.2,0.,1.2,,0.0,,0.0
1981-08-29 09:05:59.470 ,7,0,0.,1.2,0.,1.2,0.,1.2,,0.0,,0.0
1981-08-29 09:06:00.670 ,7,0,0.,1.2,0.,1.2,0.,1.2,,0.0,,0.0
1981-08-29 09:06:01.870 ,7,0,0.,1.2,0.,1.2,0.,1.2,,0.0,,0.0
1981-08-29 09:06:03.070 ,7,0,0.,1.2,0.,1.2,0.,1.2,,0.0,,0.0
1981-08-29 09:06:04.270 ,7,0,0.,1.2,0.,1.2,0.,1.2,,0.0,,0.0
1981-08-29 09:06:05.470 ,7,0,0.,1.2,0.,1.2,0.,1.2,,0.0,,0.0
1981-08-29 09:06:06.670 ,7,0,0.,1.2,0.,1.2,0.,1.2,,0.0,,0.0
1981-08-29 09:06:07.870 ,7,0,0.,1.2,0.,1.2,0.,1.2,,0.0,,0.0
1981-08-29 09:06:09.070 ,7,0,0.,1.2,0.,1.2,0.,1.2,,0.0,,0.0
1981-08-29 09:06:10.270 ,7,0,0.,1.2,0.,1.2,0.,1.2,,0.0,,0.0
1981-08-29 09:06:11.470 ,7,0,0.,1.2,0.,1.2,0.,1.2,,0.0,,0.0
1981-08-29 09:06:12.670 ,7,0,0.,1.2,0.,1.2,0.,1.2,,0.0,,0.0
1981-08-29 09:06:13.870 ,7,0,1.,1.2,1.,1.2,0.,1.2,,0.0,,0.0
1981-08-29 09:06:15.070 ,7,0,0.,1.2,0.,1.2,0.,1.2,,0.0,,0.0
1981-08-29 09:06:16.270 ,7,0,1.,1.2,1.,1.2,0.,1.2,,0.0,,0.0
1981-08-29 09:06:17.470 ,7,0,1.,1.2,0.,1.2,0.,1.2,,0.0,,0.0
1981-08-29 09:06:18.670 ,7,0,0.,1.2,0.,1.2,0.,1.2,,0.0,,0.0
1981-08-29 09:06:19.870 ,7,0,0.,1.2,0.,1.2,0.,1.2,,0.0,,0.0
1981-08-29 09:06:21.070 ,7,0,0.,1.2,0.,1.2,0.,1.2,,0.0,,0.0
1981-08-29 09:06:22.270 ,7,0,0.,1.2,0.,1.2,0.,1.2,,0.0,,0.0
1981-08-29 09:06:23.470 ,6,0,0.,1.2,0.,1.2,0.,1.2,,0.0,,0.0
1981-08-29 09:06:24.670 ,6,0,0.,1.2,0.,1.2,0.,1.2,,0.0,,0.0
1981-08-29 09:06:25.870 ,6,0,0.,1.2,0.,1.2,0.,1.2,,0.0,,0.0
1981-08-29 09:06:27.070 ,6,0,0.,1.2,0.,1.2,0.,1.2,,0.0,,0.0
1981-08-29 09:06:28.270 ,6,0,1.,1.2,1.,1.2,0.,1.2,,0.0,,0.0
1981-08-29 09:06:29.470 ,6,0,0.,1.2,0.,1.2,0.,1.2,,0.0,,0.0
1981-08-29 09:06:30.670 ,6,0,0.,1.2,0.,1.2,0.,1.2,,0.0,,0.0
1981-08-29 09:06:31.870 ,6,0,0.,1.2,0.,1.2,0.,1.2,,0.0,,0.0
1981-08-29 09:06:33.070 ,6,0,0.,1.2,0.,1.2,0.,1.2,,0.0,,0.0
1981-08-29 09:06:34.270 ,6,0,1.,1.2,0.,1.2,0.,1.2,,0.0,,0.0
1981-08-29 09:06:35.470 ,6,0,0.,1.2,0.,1.2,0.,1.2,,0.0,,0.0
1981-08-29 09:06:36.670 ,6,0,0.,1.2,0.,1.2,0.,1.2,,0.0,,0.0
1981-08-29 09:06:37.870 ,6,0,0.,1.2,0.,1.2,0.,1.2,,0.0,,0.0
1981-08-29 09:06:39.070 ,6,0,0.,1.2,0.,1.2,0.,1.2,,0.0,,0.0
1981-08-29 09:06:40.270 ,6,0,0.,1.2,0.,1.2,0.,1.2,,0.0,,0.0
1981-08-29 09:06:41.470 ,6,0,0.,1.2,0.,1.2,0.,1.2,,0.0,,0.0
1981-08-29 09:06:42.670 ,6,0,0.,1.2,0.,1.2,0.,1.2,,0.0,,0.0
1981-08-29 09:06:43.870 ,6,0,0.,1.2,0.,1.2,0.,1.2,,0.0,,0.0
1981-08-29 09:06:45.070 ,6,0,0.,1.2,0.,1.2,0.,1.2,,0.0,,0.0
1981-08-29 09:06:46.270 ,6,0,0.,1.2,0.,1.2,0.,1.2,,0.0,,0.0
1981-08-29 09:06:47.470 ,6,0,0.,1.2,0.,1.2,0.,1.2,,0.0,,0.0
1981-08-29 09:06:48.670 ,6,0,0.,1.2,0.,1.2,0.,1.2,,0.0,,0.0
1981-08-29 09:06:49.870 ,6,0,0.,1.2,0.,1.2,0.,1.2,,0.0,,0.0
1981-08-29 09:06:51.070 ,6,0,0.,1.2,0.,1.2,0.,1.2,,0.0,,0.0
1981-08-29 09:06:52.270 ,6,0,0.,1.2,0.,1.2,0.,1.2,,0.0,,0.0
1981-08-29 09:06:53.470 ,6,0,0.,1.2,0.,1.2,0.,1.2,,0.0,,0.0
1981-08-29 09:06:54.670 ,6,0,0.,1.2,0.,1.2,0.,1.2,,0.0,,0.0
1981-08-29 09:06:55.870 ,6,0,0.,1.2,0.,1.2,0.,1.2,,0.0,,0.0
1981-08-29 09:06:57.070 ,6,0,0.,1.2,0.,1.2,0.,1.2,,0.0,,0.0
1981-08-29 09:06:58.270 ,6,0,0.,1.2,0.,1.2,0.,1.2,,0.0,,0.0
1981-08-29 09:06:59.470 ,6,0,1.,1.2,1.,1.2,0.,1.2,,0.0,,0.0
1981-08-29 09:07:00.670 ,6,0,1.,1.2,0.,1.2,0.,1.2,,0.0,,0.0
1981-08-29 09:07:01.870 ,6,0,1.,1.2,0.,1.2,0.,1.2,,0.0,,0.0
1981-08-29 09:07:03.070 ,6,0,0.,1.2,0.,1.2,0.,1.2,,0.0,,0.0
1981-08-29 09:07:04.270 ,6,0,1.,1.2,0.,1.2,0.,1.2,,0.0,,0.0
1981-08-29 09:07:05.470 ,6,0,2.,1.2,1.,1.2,1.,1.2,,0.0,,0.0
1981-08-29 09:07:06.670 ,6,0,2.,1.2,1.,1.2,0.,1.2,,0.0,,0.0
1981-08-29 09:07:07.870 ,6,0,0.,1.2,0.,1.2,0.,1.2,,0.0,,0.0
1981-08-29 09:07:09.070 ,6,0,0.,1.2,0.,1.2,0.,1.2,,0.0,,0.0
1981-08-29 09:07:10.270 ,6,0,1.,1.2,1.,1.2,1.,1.2,,0.0,,0.0
1981-08-29 09:07:11.470 ,5,0,1.,1.2,1.,1.2,0.,1.2,,0.0,,0.0
1981-08-29 09:07:12.670 ,5,0,0.,1.2,0.,1.2,0.,1.2,,0.0,,0.0
1981-08-29 09:07:13.870 ,5,0,0.,1.2,0.,1.2,0.,1.2,,0.0,,0.0
1981-08-29 09:07:15.070 ,5,0,0.,1.2,0.,1.2,0.,1.2,,0.0,,0.0
1981-08-29 09:07:16.270 ,5,0,2.,1.2,1.,1.2,0.,1.2,,0.0,,0.0
1981-08-29 09:07:17.470 ,5,0,0.,1.2,0.,1.2,0.,1.2,,0.0,,0.0
1981-08-29 09:07:18.670 ,5,0,1.,1.2,1.,1.2,0.,1.2,,0.0,,0.0
1981-08-29 09:07:19.870 ,5,0,0.,1.2,0.,1.2,0.,1.2,,0.0,,0.0
1981-08-29 09:07:21.070 ,5,0,0.,1.2,0.,1.2,0.,1.2,,0.0,,0.0
1981-08-29 09:07:22.270 ,5,0,0.,1.2,0.,1.2,0.,1.2,,0.0,,0.0
1981-08-29 09:07:23.470 ,5,0,1.,1.2,0.,1.2,0.,1.2,,0.0,,0.0
1981-08-29 09:07:24.670 ,5,0,0.,1.2,0.,1.2,0.,1.2,,0.0,,0.0
1981-08-29 09:07:25.870 ,5,0,0.,1.2,0.,1.2,0.,1.2,,0.0,,0.0
1981-08-29 09:07:27.070 ,5,0,0.,1.2,0.,1.2,0.,1.2,,0.0,,0.0
1981-08-29 09:07:28.270 ,5,0,1.,1.2,0.,1.2,0.,1.2,,0.0,,0.0
1981-08-29 09:07:29.470 ,5,0,1.,1.2,1.,1.2,1.,1.2,,0.0,,0.0
1981-08-29 09:07:30.670 ,5,0,0.,1.2,0.,1.2,0.,1.2,,0.0,,0.0
1981-08-29 09:07:31.870 ,5,0,0.,1.2,0.,1.2,0.,1.2,,0.0,,0.0
1981-08-29 09:07:33.070 ,5,0,0.,1.2,0.,1.2,0.,1.2,,0.0,,0.0
1981-08-29 09:07:34.270 ,5,0,0.,1.2,0.,1.2,0.,1.2,,0.0,,0.0
1981-08-29 09:07:35.470 ,5,0,0.,1.2,0.,1.2,0.,1.2,,0.0,,0.0
1981-08-29 09:07:36.670 ,5,0,0.,1.2,0.,1.2,0.,1.2,,0.0,,0.0
1981-08-29 09:07:37.870 ,5,0,0.,1.2,0.,1.2,0.,1.2,,0.0,,0.0
1981-08-29 09:07:39.070 ,5,0,0.,1.2,0.,1.2,0.,1.2,,0.0,,0.0
1981-08-29 09:07:40.270 ,5,0,0.,1.2,0.,1.2,0.,1.2,,0.0,,0.0
1981-08-29 09:07:41.470 ,5,0,0.,1.2,0.,1.2,0.,1.2,,0.0,,0.0
1981-08-29 09:07:42.670 ,5,0,1.,1.2,0.,1.2,0.,1.2,,0.0,,0.0
1981-08-29 09:07:43.870 ,5,0,0.,1.2,0.,1.2,0.,1.2,,0.0,,0.0
1981-08-29 09:07:45.070 ,5,0,0.,1.2,0.,1.2,0.,1.2,,0.0,,0.0
1981-08-29 09:07:46.270 ,5,0,1.,1.2,0.,1.2,0.,1.2,,0.0,,0.0
1981-08-29 09:07:47.470 ,5,0,2.,1.2,0.,1.2,0.,1.2,,0.0,,0.0
1981-08-29 09:07:48.670 ,5,0,0.,1.2,0.,1.2,0.,1.2,,0.0,,0.0
1981-08-29 09:07:49.870 ,5,0,0.,1.2,0.,1.2,0.,1.2,,0.0,,0.0
1981-08-29 09:07:51.070 ,5,0,1.,1.2,1.,1.2,1.,1.2,,0.0,,0.0
1981-08-29 09:07:52.270 ,5,0,0.,1.2,0.,1.2,0.,1.2,,0.0,,0.0
1981-08-29 09:07:53.470 ,5,0,0.,1.2,0.,1.2,0.,1.2,,0.0,,0.0
1981-08-29 09:07:54.670 ,5,0,1.,1.2,0.,1.2,0.,1.2,,0.0,,0.0
1981-08-29 09:07:55.870 ,5,0,0.,1.2,0.,1.2,0.,1.2,,0.0,,0.0
1981-08-29 09:07:57.070 ,5,0,0.,1.2,0.,1.2,0.,1.2,,0.0,,0.0
1981-08-29 09:07:58.270 ,5,0,1.,1.2,0.,1.2,0.,1.2,,0.0,,0.0
1981-08-29 09:07:59.470 ,4,0,1.,1.2,0.,1.2,0.,1.2,,0.0,,0.0
1981-08-29 09:08:00.670 ,4,0,1.,1.2,0.,1.2,0.,1.2,,0.0,,0.0
1981-08-29 09:08:01.870 ,4,0,0.,1.2,0.,1.2,0.,1.2,,0.0,,0.0
1981-08-29 09:08:03.070 ,4,0,0.,1.2,0.,1.2,0.,1.2,,0.0,,0.0
1981-08-29 09:08:04.270 ,4,0,0.,1.2,0.,1.2,0.,1.2,,0.0,,0.0
1981-08-29 09:08:05.470 ,4,0,0.,1.2,0.,1.2,0.,1.2,,0.0,,0.0
1981-08-29 09:08:06.670 ,4,0,0.,1.2,0.,1.2,0.,1.2,,0.0,,0.0
1981-08-29 09:08:07.870 ,4,0,1.,1.2,0.,1.2,0.,1.2,,0.0,,0.0
1981-08-29 09:08:09.070 ,4,0,0.,1.2,0.,1.2,0.,1.2,,0.0,,0.0
1981-08-29 09:08:10.270 ,4,0,0.,1.2,0.,1.2,0.,1.2,,0.0,,0.0
1981-08-29 09:08:11.470 ,4,0,0.,1.2,0.,1.2,0.,1.2,,0.0,,0.0
1981-08-29 09:08:12.670 ,4,0,0.,1.2,0.,1.2,0.,1.2,,0.0,,0.0